Regional Weather Roundup
Issued by NWS

Home | Current Version | Previous Version | Text Only | Print | Product List | Glossary On
Versions: 1 2 3 4 5 6 7 8 9 10 11 12 13 14 15 16 17 18 19 20 21 22 23 24 25 26 27 28 29 30 31 32 33 34 35 36 37 38 39 40 41 42 43 44 45 46 47 48 49 50
000
ASUS46 KSEW 270410
RWRWA

WASHINGTON REGIONAL WEATHER ROUNDUP
NATIONAL WEATHER SERVICE SEATTLE WA
900 PM PDT TUE MAY 26 2015

NOTE:"FAIR" INDICATES FEW OR NO CLOUDS BELOW 12,000 FEET WITH NO
SIGNIFICANT WEATHER AND/OR OBSTRUCTIONS TO VISIBILITY.

WAZ505-507>509-270500-
SEATTLE, TACOMA, EVERETT, AND VICINITY

CITY           SKY/WX    TMP DP  RH WIND       PRES   REMARKS
EVERETT        CLOUDY    62  51  67 W6        30.02S
BOEING FIELD   MOCLDY    69  50  50 CALM      30.01S
RENTON         CLOUDY    65  53  65 SE3       30.01S
SEATAC AIRPORT MOCLDY    65  51  60 W5        30.02S
JBLM-MCCHORD   MOCLDY    64  52  66 N1        30.01F
PUYALLUP       MOCLDY    61  55  82 CALM      30.02S
BREMERTON      CLEAR     57  54  88 CALM      30.04S
JBLM-FT LEWIS  PTCLDY    64  53  68 NW2       30.01S
TACOMA NARROWS MOCLDY    64  50  60 CALM      30.03R
$$

WAZ001-503-506-510-514-515-270500-
NORTH INTERIOR

CITY           SKY/WX    TMP DP  RH WIND       PRES   REMARKS
BELLINGHAM     PTCLDY    61  54  77 CALM      30.00S
FRIDAY HARBOR  PTCLDY    56  50  80 VRB3      30.02S
EASTSOUND      PTCLDY    63  52  67 S6        29.98F
PORT ANGELES   CLEAR     52  49  89 NW5       30.03S
PORT TOWNSEND  CLOUDY    57  52  82 NW6       30.01S
NAS WHIDBEY    MOCLDY    55  53  93 SW6       30.06S
ARLINGTON        N/A     63  52  67 NW5       30.02R
BURLINGTON     MOCLDY    57  54  88 CALM      30.01S
$$

WAZ020-022-039-040-504-511-512-270500-
SOUTHWEST INTERIOR

CITY           SKY/WX    TMP DP  RH WIND       PRES   REMARKS
SHELTON        CLOUDY    63  53  70 W6        30.00S
OLYMPIA        CLOUDY    66  52  60 NE3       30.02R
CHEHALIS       MOCLDY    63  55  77 CALM      30.01S
KELSO          CLOUDY    64  52  63 W12       30.04R
VANCOUVER      CLOUDY    67  49  52 NW5       29.99S
SCAPPOOSE, OR  MOCLDY    62  51  67 W3        29.99S
PORTLAND, OR   MOCLDY    67  51  56 N6        30.00R
$$

WAZ021-516-517-270500-
WASHINGTON COAST

CITY           SKY/WX    TMP DP  RH WIND       PRES   REMARKS
FORKS          CLOUDY    52  51  97 CALM      30.05S
HOQUIAM        MOCLDY    55  50  83 W9        30.05S
ASTORIA, OR    MOCLDY    54  50  86 NW5       30.06R
$$

WAZ019-023-024-040-518-519-270500-
CASCADE MOUNTAINS AND COLUMBIA GORGE

CITY           SKY/WX    TMP DP  RH WIND       PRES   REMARKS
TROUTDALE, OR  CLOUDY    66  51  58 CALM      29.98S
THE DALLES, OR PTCLDY    65  48  54 NW12      29.92R
$$

WAZ026-027-041>044-520-521-270500-
EAST SLOPES

CITY           SKY/WX    TMP DP  RH WIND       PRES   REMARKS
OMAK           PTCLDY    58  49  72 NW5       29.95R
WENATCHEE      CLOUDY    66  50  56 W5        29.94S
ELLENSBURG     CLOUDY    61  50  67 NW10      29.96S
YAKIMA         MOCLDY    65  52  62 SW8       29.94S
$$

WAZ028-034-035-270500-
COLUMBIA BASIN

CITY           SKY/WX    TMP DP  RH WIND       PRES   REMARKS
EPHRATA        MOCLDY    65  52  62 NW5       29.93S
MOSES LAKE     MOCLDY    62  51  67 CALM      29.94R
PASCO          PTCLDY    65  57  75 CALM      29.92R
HERMISTON, OR  MOCLDY    65  51  60 CALM      29.90R
$$

WAZ036>038-270500-
NORTHEAST WASHINGTON

CITY           SKY/WX    TMP DP  RH WIND       PRES   REMARKS
SPOKANE GEIGER PTCLDY    59  49  69 NW3       29.96R
SPOKANE FELTS  PTCLDY    58  52  80 NE3       29.96R
FAIRCHILD AFB  PTCLDY    58  49  74 N2        29.96R
COEURDALENE,ID PTCLDY    57  48  72 E6        29.95R
DEER PARK      PTCLDY    54  49  83 MISG      29.96R
$$

WAZ029>033-270500-
SOUTHEAST WASHINGTON

CITY           SKY/WX    TMP DP  RH WIND       PRES   REMARKS
PULLMAN        PTCLDY    54  49  83 NW5       29.98R
LEWISTON, ID   MOCLDY    60  51  72 S6        29.94R
WALLA WALLA    PTCLDY    63  52  67 E5        29.92R
PENDLETON, OR  MOCLDY    63  49  60 NE9       29.91R
$$


USA.gov is the U.S. government's official web portal to all federal, state and local government web resources and services.